Погода в Посёлке им. Максима Горького

Россия / Владимирская область     56°28′18″N   40°57′48″E
темп.,
°C
ветер,
м/с
пор.,
м/с
влажн.,
%
обл.,
%
осадки,
мм/ч
давл.,
гПа
погр.,
м
25 июля, вс
вс2500:00+14с2254100 0.0 101728
03:00+13ссз236085 0.0 101863
06:00+12зсз12675 0.0 102065
09:00+19зюз22427 0.0 1020750
12:00+20зюз343884 0.0 10201263
15:00+20сз254287 0.0 10201526
18:00+21зюз3641100 0.0 1020533
21:00+15сз226120 0.0 102113
26 июля, пн
пн2600:00+16юз115091 0.0 102211
03:00+15з1155100 0.0 102219
06:00+16зюз2659100 0.0 1022182
09:00+21з344415 0.0 1022675
12:00+25сз463171 0.0 10222660
15:00+23з453855 0.0 1021988
18:00+24сз263896 0.0 10202050
21:00+17зюз23618 0.0 102143
27 июля, вт
вт2700:00+18зюз2557100 0.0 1021112
03:00+15зсз347430 0.0 102162
06:00+16сз25735 0.0 1021139
09:00+23ссз23465 0.0 1021702
12:00+27сз3535100 0.0 10202742
15:00+25зсз134489 0.0 1019634
18:00+17юв118627 1.1 101833
21:00+17юв238878 1.3 101957
28 июля, ср
ср2800:00+15ю11897 0.3 101811
03:00+14з118912 0.9 101810
06:00+17ссв00845 0.0 101738
09:00+22ююв21620 0.0 1016433
12:00+27юз23391 0.0 10141611
15:00+29зюз4533100 0.0 10122903
18:00+24зюз81052100 0.1 1011861
21:00+18зюз3587100 1.2 101178
29 июля, чт
чт2900:00+17ю1193100 1.1 101011
03:00+16юв3798100 3.3 1008306
06:00+17ююв4897100 2.3 1006427
09:00+17ююв3594100 2.4 1005456
12:00+18ю2494100 0.4 1005301
15:00+18юз1397100 1.8 1004186
18:00+20зсз468839 0.9 1004681
21:00+17з36977 1.6 1005171